Location: Buena Vista Beach
(41.8098°N, 81.1279°W)
Time: 08:32:56
(UTC+00:00)

Cosmos 968 Rocket - Pass Details

Date: 29 October 2020
Orbit: 741 x 770 km, 74.0° (Epoch: 28 November)

Event Time Altitude Azimuth Distance (km) Brightness Sun altitude
Rises 23:17:31 0° 343° (NNW) 3,235 6.8 -10.9°
Reaches altitude 10° 23:19:57 10° 348° (NNW) 2,300 6.0 -11.3°
Maximum altitude 23:25:05 59° 67° (ENE) 873 3.5 -12.3°
Drops below altitude 10° 23:30:09 10° 147° (SSE) 2,266 5.7 -13.2°
Sets 23:32:32 0° 151° (SSE) 3,181 6.5 -13.7°
